AirNav   ProFlight Series 2 Aviation Headset
 
 1072 users online  

PS83 GlaxoSmithKline LLC Heliport
Upper Merion Township, Pennsylvania, USA

GOING TO UPPER MERION TOWNSHIP?


FAA INFORMATION EFFECTIVE 18 JUNE 2020

Location

FAA Identifier: PS83
Lat/Long: 40-04-47.3930N 075-19-42.6630W
40-04.789883N 075-19.711050W
40.0798314,-75.3285175
(estimated)
Elevation: 200 ft. / 61 m (estimated)
Variation: 11W (1986)
From city: 2 miles SE of UPPER MERION TOWNSHIP, PA
Time zone: UTC -4 (UTC -5 during Standard Time)
Zip code: 19428

Heliport Operations

Heliport use: Private use. Permission required prior to landing
Activation date: 04/1986
Control tower: no
ARTCC: NEW YORK CENTER
FSS: WILLIAMSPORT FLIGHT SERVICE STATION
Attendance: UNATNDD
Wind indicator: yes
Segmented circle: no

Heliport Communications

WX AWOS-3 at LOM (5 nm NE): 118.925 (215-646-1068)
WX AWOS-3T at OQN (13 nm SW): 121.4 ((610) 692-6190)
WX ASOS at PHL (13 nm S): PHONE 215-492-9617
WX ASOS at PTW (14 nm NW): 119.425 (610-495-0823)
WX ASOS at PNE (15 nm E): 121.15 (215-677-0146)
WX ASOS at DYL (18 nm NE): 118.875 (215-345-0392)
WX AWOS-3 at CKZ (19 nm N): 126.325 (215-257-7291)

Nearby radio navigation aids

VOR radial/distance  VOR name  Freq  Var
PTWr138/13.6POTTSTOWN VORTAC116.5009W
MXEr067/18.5MODENA VORTAC113.2009W
ARDr252/21.9YARDLEY VOR/DME108.2010W
OODr007/26.7WOODSTOWN VORTAC112.8010W
DQOr038/27.3DUPONT VORTAC114.0010W
GXUr289/33.9MC GUIRE VORTAC110.6012W
ETXr161/34.2EAST TEXAS VOR/DME110.2009W
VCNr343/36.5CEDAR LAKE VOR/DME115.2010W
RBVr269/38.9ROBBINSVILLE VORTAC113.8010W
FJCr182/39.2ALLENTOWN VORTAC117.5010W

 
NDB name  Hdg/Dist  Freq  Var  ID
AMBLER228/3.427512WING .. -. --.

Heliport Services

Runway Information

Helipad H1

Dimensions: 65 x 65 ft. / 20 x 20 m
Surface: asphalt
Traffic pattern: leftleft

Heliport Ownership and Management from official FAA records

Ownership: Privately-owned
Owner: GLAXOSMITHKLINE, LLC
709 SWEDELAND RD
KING OF PRUSSIA, PA 19406
Phone 610-270-7300
Manager: JOHN DACOSTA
709 SWEDELAND RD
KING OF PRUSSIA, PA 19406
Phone 484-880-8525

Additional Remarks

FOR CD CTC PHILADELPHIA APCH AT 800-354-9884.

Instrument Procedures

There are no published instrument procedures at PS83.

Some nearby airports with instrument procedures:

KLOM - Wings Field Airport (5 nm NE)
N10 - Perkiomen Valley Airport (9 nm NW)
KOQN - Brandywine Regional Airport (13 nm SW)
KPHL - Philadelphia International Airport (13 nm S)
KPTW - Heritage Field Airport (14 nm NW)
KPNE - Northeast Philadelphia Airport (15 nm E)
KDYL - Doylestown Airport (18 nm NE)
KCKZ - Pennridge Airport (19 nm N)
N47 - Pottstown Municipal Airport (19 nm NW)
 
Loc | Ops | Rwys | IFR | FBO | Links
Com | Nav | Svcs | Stats | Notes
Area around PS83 (GlaxoSmithKline LLC Heliport)
 
Road maps at: MapQuest Bing Google
 
Aerial photo
No photo
 
Sectional chart

 
Airport distance calculator
Flying to GlaxoSmithKline LLC Heliport? Find the distance to fly.

From to PS83

Sunrise and sunset
Times for 12-Jul-2020
 Local
(UTC-4)
 Zulu
(UTC)
Morning civil twilight05:1209:12
Sunrise05:4409:44
Sunset20:3000:30
Evening civil twilight21:0201:02

Current date and time
Zulu (UTC)  12-Jul-2020 19:21:49
Local (UTC-4)  12-Jul-2020 15:21:49
 
METAR
KLOM 
5nm NE 
121855Z AUTO 24010KT 10SM BKN060 31/18 A2976 RMK AO2 P0001 T03110178
KOQN 
13nm SW 
121855Z AUTO 24005KT 10SM SCT060 SCT080 BKN110 30/16 A2977 RMK AO2
KPHL 
14nm S 
121854Z 22012G21KT 10SM SCT065 32/16 A2976 RMK AO2 SLP076 T03220161
KPTW 
14nm NW 
121854Z AUTO 21007KT 8SM FEW060 BKN100 29/17 A2977 RMK AO2 SLP077 T02940167
KPNE 
14nm E 
121854Z 24009KT 10SM SCT065 31/16 A2975 RMK AO2 SLP074 T03110156
KDYL 
18nm NE 
121854Z AUTO 24006KT 10SM FEW055 FEW095 32/16 A2975 RMK AO2 SLP067 T03220161
KCKZ 
19nm N 
121855Z AUTO 26006KT 10SM SCT060 BKN095 29/17 A2977 RMK AO2
TAF
KPHL 
14nm S 
121726Z 1218/1324 25010KT P6SM SCT050 BKN120 FM122200 24010KT P6SM VCSH BKN050 FM130000 23008KT P6SM -SHRA BKN045 FM130600 31004KT P6SM BKN060 FM131300 29008KT P6SM BKN200
KPNE 
14nm E 
121726Z 1218/1318 27008KT P6SM SCT060 BKN120 FM122200 24006KT P6SM VCSH BKN050 FM130000 25006KT P6SM -SHRA BKN045 FM130600 VRB02KT P6SM BKN060 FM131300 28006KT P6SM BKN200
NOTAMs
Click for the latest NOTAMs
NOTAMs are issued by the DoD/FAA and will open in a separate window not controlled by AirNav.

 

 
 

Would you like to see your business listed on this page?

 If your business provides an interesting product or service to pilots, flight crews, aircraft, or users of the GlaxoSmithKline LLC Heliport, you should consider listing it here.  To start the listing process, click on the button below
 
Add a business
 

Other Pages about GlaxoSmithKline LLC Heliport

Update a link
 
Copyright © AirNav, LLC. All rights reserved. Privacy Policy  Contact